TimeMDT,TemperatureF,Dew PointF,Humidity,Sea Level PressureIn,VisibilityMPH,Wind Direction,Wind SpeedMPH,Gust SpeedMPH,PrecipitationIn,Events,Conditions,WindDirDegrees,DateUTC
12:53 AM,19.4,17.6,93,29.85,2.0,ESE,10.4,-,0.00,Snow,Light Snow,120,2013-03-22 06:53:00
12:56 AM,19.9,17.1,89,29.97,1.8,SE,10.4,-,0.00,Snow,Light Snow,130,2013-03-22 06:56:00
1:10 AM,19.4,17.6,93,29.85,2.0,SE,10.4,-,0.01,Snow,Light Snow,130,2013-03-22 07:10:00
1:21 AM,19.4,15.8,86,29.85,4.0,SE,11.5,-,0.01,Snow,Light Snow,130,2013-03-22 07:21:00
1:31 AM,19.4,17.6,93,29.85,2.5,SE,8.1,-,0.01,Snow,Light Snow,130,2013-03-22 07:31:00
1:40 AM,19.4,15.8,86,29.85,1.5,SE,15.0,-,0.01,Snow,Light Snow,140,2013-03-22 07:40:00
1:56 AM,19.9,16.0,85,29.96,1.5,SE,12.7,-,0.01,Snow,Light Snow,130,2013-03-22 07:56:00
2:56 AM,19.0,15.1,85,29.95,1.2,SE,10.4,-,0.01,Snow,Light Snow,130,2013-03-22 08:56:00
3:56 AM,18.0,15.1,88,29.93,1.5,SE,11.5,-,0.00,Snow,Light Snow,130,2013-03-22 09:56:00
4:56 AM,17.1,14.0,88,29.94,1.2,SE,11.5,-,0.01,Snow,Light Snow,130,2013-03-22 10:56:00
5:36 AM,15.8,12.2,86,29.83,1.0,SE,12.7,-,0.00,Snow,Light Snow,130,2013-03-22 11:36:00
5:44 AM,15.8,12.2,86,29.83,1.5,SE,11.5,-,0.00,Snow,Light Snow,130,2013-03-22 11:44:00
5:54 AM,15.8,12.2,86,29.83,2.0,SE,11.5,-,0.00,Snow,Light Snow,130,2013-03-22 11:54:00
5:56 AM,16.0,12.9,88,29.94,1.8,SE,10.4,-,0.00,Snow,Light Snow,130,2013-03-22 11:56:00
6:47 AM,15.8,12.2,86,29.83,2.5,SE,9.2,-,0.01,Snow,Light Snow,140,2013-03-22 12:47:00
6:54 AM,15.8,12.2,86,29.83,3.0,SE,9.2,-,0.01,Snow,Light Snow,140,2013-03-22 12:54:00
6:56 AM,16.0,12.9,88,29.95,3.0,SE,9.2,-,0.01,Snow,Light Snow,140,2013-03-22 12:56:00
7:01 AM,15.8,12.2,86,29.83,1.8,SE,10.4,-,0.00,Snow,Light Snow,140,2013-03-22 13:01:00
7:14 AM,15.8,12.2,86,29.83,1.0,SE,9.2,-,0.00,Snow,Light Snow,140,2013-03-22 13:14:00
7:26 AM,15.8,12.2,86,29.83,3.0,SE,9.2,-,0.00,Snow,Light Snow,140,2013-03-22 13:26:00
7:33 AM,15.8,12.2,86,29.83,4.0,SE,9.2,-,0.00,Snow,Light Snow,140,2013-03-22 13:33:00
7:56 AM,17.1,12.9,84,29.95,3.0,SE,10.4,-,0.00,Snow,Light Snow,140,2013-03-22 13:56:00
8:39 AM,17.6,14.0,86,29.83,2.0,SSE,9.2,-,0.00,Snow,Light Snow,150,2013-03-22 14:39:00
8:56 AM,19.0,14.0,81,29.94,2.0,SSE,12.7,-,0.00,Snow,Light Snow,150,2013-03-22 14:56:00
9:27 AM,19.4,15.8,86,29.83,3.0,SSE,10.4,-,0.00,Snow,Light Snow,160,2013-03-22 15:27:00
9:56 AM,21.0,16.0,81,29.94,5.0,SSE,10.4,-,0.00,,Haze,150,2013-03-22 15:56:00
10:20 AM,21.2,15.8,80,29.82,2.0,SE,11.5,-,0.00,Snow,Light Snow,140,2013-03-22 16:20:00
10:29 AM,21.2,15.8,80,29.83,3.0,SSE,9.2,-,0.00,Snow,Light Snow,150,2013-03-22 16:29:00
10:39 AM,21.2,17.6,86,29.82,5.0,SE,9.2,-,0.00,,Haze,140,2013-03-22 16:39:00
10:56 AM,23.0,17.1,78,29.95,8.0,SSE,9.2,-,0.00,,Overcast,160,2013-03-22 16:56:00
11:56 AM,25.0,19.0,78,29.94,10.0,SSW,5.8,-,N/A,,Overcast,210,2013-03-22 17:56:00
12:56 PM,26.1,19.0,75,29.96,10.0,Variable,3.5,-,N/A,,Overcast,0,2013-03-22 18:56:00
1:14 PM,26.6,19.4,74,29.85,10.0,Calm,Calm,-,N/A,,Overcast,0,2013-03-22 19:14:00
1:56 PM,27.0,19.0,72,29.95,10.0,ESE,4.6,-,N/A,,Overcast,110,2013-03-22 19:56:00
2:56 PM,27.0,19.9,75,29.97,10.0,Calm,Calm,-,N/A,,Overcast,0,2013-03-22 20:56:00
3:56 PM,28.0,19.9,72,29.98,10.0,Calm,Calm,-,N/A,,Overcast,0,2013-03-22 21:56:00
4:56 PM,28.0,21.0,75,30.00,10.0,NE,3.5,-,N/A,,Overcast,40,2013-03-22 22:56:00
5:37 PM,26.6,21.2,80,29.91,7.0,NNE,4.6,-,0.00,Snow,Light Snow,30,2013-03-22 23:37:00
5:56 PM,26.1,21.0,81,30.03,9.0,NW,12.7,-,0.00,,Overcast,310,2013-03-22 23:56:00
6:56 PM,21.9,18.0,85,30.07,8.0,WNW,19.6,24.2,0.00,,Overcast,300,2013-03-23 00:56:00
7:56 PM,19.9,15.1,81,30.11,10.0,WNW,19.6,24.2,N/A,,Overcast,300,2013-03-23 01:56:00
8:04 PM,19.4,14.0,80,29.98,10.0,WNW,18.4,-,N/A,,Overcast,300,2013-03-23 02:04:00
8:56 PM,18.0,12.0,78,30.13,8.0,WNW,17.3,-,0.00,Snow,Light Snow,300,2013-03-23 02:56:00
10:16 PM,17.6,12.2,79,30.02,10.0,WNW,13.8,-,0.00,,Overcast,300,2013-03-23 04:16:00
10:56 PM,16.0,10.9,81,30.15,10.0,WNW,13.8,-,0.00,,Overcast,300,2013-03-23 04:56:00
11:08 PM,15.8,10.4,79,30.03,10.0,WNW,15.0,-,N/A,,Overcast,300,2013-03-23 05:08:00
11:56 PM,10.9,7.0,84,30.17,10.0,West,10.4,-,N/A,,Mostly Cloudy,270,2013-03-23 05:56:00